Regional Weather Roundup
Issued by NWS

Home | Current Version | Previous Version | Text Only | Print | Product List | Glossary Off
Versions: 1 2 3 4 5 6 7 8 9 10 11 12 13 14 15 16 17 18 19 20 21 22 23 24 25 26 27 28 29 30 31 32 33 34 35 36 37 38 39 40 41 42 43 44 45 46 47 48 49 50

000
ASUS43 KLOT 011106
RWRIL

ILLINOIS REGIONAL WEATHER ROUNDUP
NATIONAL WEATHER SERVICE CHICAGO/ROMEOVILLE IL
500 AM CST SUN FEB 01 2015

NOTE: "FAIR" INDICATES FEW OR NO CLOUDS BELOW 12,000 FEET WITH NO
SIGNIFICANT WEATHER AND/OR OBSTRUCTIONS TO VISIBILITY.

* THESE STATIONS ARE NOT UNDER NWS QUALITY CONTROL. THEY ALSO MAY NOT
  REPORT WEATHER SUCH AS PRECIPITATION OR FOG.

ILZ001-002-007-009-015-016-024-011200-
NORTHWEST ILLINOIS

CITY           SKY/WX    TMP DP  RH WIND       PRES   REMARKS
MOLINE         LGT SNOW  32  31  96 E10       29.88F VSB 3/4 WCI  24
STERLING*        N/A    N/A N/A N/A MISG        N/A
SAVANNA*       LGT SNOW  31  30  94 E14       29.95F VSB 3/4 WCI  21
$$

ILZ003-004-008-010-011-017-018-011200-
NORTH CENTRAL ILLINOIS

CITY           SKY/WX    TMP DP  RH WIND       PRES   REMARKS
ROCKFORD       LGT SNOW  29  26  89 E18G24    30.01F VSB 1   WCI  16
FREEPORT*      LGT SNOW  28  26  95 NE15G24   30.00F WCI  16
ROCHELLE*      LGT SNOW  30  30  98 E12       29.98F VSB 3/4 WCI  21
DE KALB*       LGT SNOW  29  28  96 E14       29.99F VSB 1   WCI  18
PERU*          LGT SNOW  33  33 100 E7        29.95F WCI  27
$$

ILZ005-006-012>014-019>023-011200-
NORTHEAST ILLINOIS

CITY           SKY/WX    TMP DP  RH WIND       PRES   REMARKS
CHICAGO-OHARE  SNOW      30  29  96 E10       30.02F VSB 1/2 WCI  21
CHICAGO-MIDWAY LGT SNOW  33  30  88 E10       30.02F VSB 3/4 WCI  25
AURORA         LGT SNOW  32  29  88 E15       29.99F VSB 3/4 WCI  22
LANSING*       LGT SNOW  32  32 100 CALM      30.02F
JOLIET*        SNOW      32  32  99 E5        30.01F VSB 1/2 WCI  27
WAUKEGAN       LGT SNOW  29  28  96 NE15G25   30.05F VSB 3/4 WCI  18
DUPAGE AIRPORT LGT SNOW  31  29  92 E10       30.00F VSB 3/4 WCI  22
KANKAKEE*      LGT SNOW  32  32  99 SE7       30.01F WCI  26
WHEELING       LGT SNOW  30  28  92 E10       30.05F VSB 3/4 WCI  21
MORRIS*        SNOW      32  32 100 E6        29.98F VSB 1/2 WCI  27
ROMEOVILLE*    LGT SNOW  31  31 100 E7        30.01F VSB 1   WCI  25
NORTHERLY ISL    N/A     31  30  96 E13         N/A  WCI  21
$$

LMZ740>746-011200-
SOUTHERN LAKE MICHIGAN

STATION/POSITION SKY/WX   TEMP    WIND        PRES    VSBY  WAVE
                          AIR SEA DIR/SP/G                  HT/PER
                          (F)     (DEG/KT/KT) (MB)    (MI)  (FT/S)
WAUKEGAN HARBOR            30      70/ 22/ 24   N/A
HARRISON CRIB              30      80/ 17/ 20   N/A
BURNHAM HARBOR             31      70/ 10/ 14   N/A
CALUMET HARBOR             31      80/  9/ 11   N/A
MICHIGAN CITY              30      90/  8/ 10   N/A
$$

ILZ025>027-034>036-040-047-049-050-058-095>099-011200-
WEST-CENTRAL ILLINOIS

CITY           SKY/WX    TMP DP  RH WIND       PRES   REMARKS
QUINCY         SNOW      33  31  92 SE10      29.82F VSB 1/2 WCI  25
GALESBURG*     LGT SNOW  32  32 100 E9        29.86F VSB 1   WCI  24
MACOMB*        CLOUDY    32  32 100 SE12      29.85F WCI  23
JACKSONVILLE*  LGT SNOW  34  33  94 SE9       29.85F WCI  27
PITTSFIELD*    LGT SNOW  33  32  96 SE9       29.84F WCI  26
$$

ILZ028>032-037-038-041>044-048-051>054-059>061-011200-
CENTRAL ILLINOIS

CITY           SKY/WX    TMP DP  RH WIND       PRES   REMARKS
PONTIAC        LGT SNOW  33  33 100 E12       29.96F WCI  25
BLOOMINGTON    LGT SNOW  33  33 100 SE9       29.92F VSB 1   WCI  25
DECATUR        LGT SNOW  33  32  96 E13       29.93F VSB 3/4 WCI  24
PEORIA         LGT SNOW  34  32  92 E10       29.89F VSB 3/4 WCI  26
LACON*         LGT SNOW  32  31  98 E9        29.92F WCI  24
LINCOLN*       LGT SNOW  34  33  96 SE9       29.91F WCI  26
SPRINGFIELD    LGT SNOW  33  32  96 SE15      29.87F FOG     WCI  23
TAYLORVILLE    LGT SNOW  32  32 100 E13       29.88F WCI  22
$$

ILZ033-039-045-046-055>057-062-063-011200-
EAST-CENTRAL ILLINOIS

CITY           SKY/WX    TMP DP  RH WIND       PRES   REMARKS
CHAMPAIGN      LGT SNOW  33  33 100 E8        29.95F VSB 3/4 WCI  26
DANVILLE*      CLOUDY    32  32  99 NE15      29.94F WCI  22
RANTOUL*       CLOUDY    34  33  96 E12       29.96F FOG     WCI  25
MATTOON        CLOUDY    34  26  72 E7        29.93F WCI  28
PARIS*         CLOUDY    33  31  89 E5        29.96F WCI  29
$$

ILZ079-100>102-011200-
SOUTHWEST ILLINOIS

CITY           SKY/WX    TMP DP  RH WIND       PRES   REMARKS
ALTON          LGT SNOW  34  32  92 E6        29.89S WCI  29
BELLEVILLE     MIX PCPN  36  34  93 NE5       29.86S WCI  32
CAHOKIA*       RAIN      36  33  89 N7        29.88F FOG     WCI  30
SPARTA*        LGT RAIN  36  32  85 SE5       29.86F WCI  32
$$

ILZ064>066-069>071-074>076-080>082-084>086-088>090-092>094-011200-
SOUTH-CENTRAL ILLINOIS

CITY           SKY/WX    TMP DP  RH WIND       PRES   REMARKS
CARBONDALE     LGT RAIN  42  28  57 S10       29.86F
CAIRO*         LGT RAIN  50  28  42 S15G21    29.89F
EFFINGHAM*     CLOUDY    35  25  65 E3        29.94F
MARION         LGT RAIN  45  28  53 S12G18    29.88F
MT. VERNON     CLOUDY    37  25  60 SE3       29.90F
CENTRALIA*     LGT RAIN  36  29  78 E8        29.87F WCI  29
SALEM*         RAIN      38  29  69 SE5       29.89F WCI  35
METROPOLIS*    CLOUDY    48  24  39 S8        29.90F
$$

ILZ067-068-072-073-078-083-087-091-011200-
SOUTHEAST ILLINOIS

CITY           SKY/WX    TMP DP  RH WIND       PRES   REMARKS
LAWRENCEVILLE  CLOUDY    36  26  67 E8        29.96F WCI  30
FLORA*         CLOUDY    36  28  70 SE8       29.92F WCI  30
FAIRFIELD*     DRIZZLE   39  26  58 E7        29.90F WCI  34
HARRISBURG*    RAIN      40  28  61 SE7       29.91F
ROBINSON*      CLOUDY    35  27  72 SE10      29.96F WCI  27
CARMI*         CLOUDY    41  30  65 SE10      29.92F
$$

ABBREVIATIONS USED IN REMARKS
   TC - TEMPERATURE IN CELSIUS
  WCI - WIND CHILL INDEX
   HX - HEAT INDEX
  VSB - VISIBILITY
$$



USA.gov is the U.S. government's official web portal to all federal, state and local government web resources and services.